[[{"header":{"parameterUnit":"m.s-1","parameterCategory":1,"la1":30.2991,"la2":30.254,"lo1":-89.0895,"lo2":-89.0444,"dy":0.0017,"dx":0.0017,"nx":28,"ny":28,"refTime":"2025-03-28T09:00:00:Z","depth":0,"parameterNumber":2,"parameterNumberName":"U-component_of_WINDS"},"data":[0,0,0,0,0,0,0,0,0,0,0,0,0,0,0,0,0,0,0,0,0,0,0,0,0,0,0,0,0,0,0,0,0,0,0,0,0,0,0,0,0,0,0,0,0,0,0,0,0,0,0,0,0,0,0,0,0,0,-5.4625,-5.4625,0,-5.4642,-5.4642,-5.4642,-5.4528,-5.4525,-5.4522,-5.4519,-5.4536,-5.4539,-5.4542,0,0,0,0,0,0,0,0,0,0,0,0,0,-5.4493,-5.4496,-5.4625,-5.4625,-5.4625,-5.4642,-5.4642,-5.4642,-5.4529,-5.4525,-5.4521,-5.4517,-5.4534,-5.4539,-5.4543,0,0,0,0,0,0,0,0,0,0,0,0,0,-5.4534,-5.4497,-5.4625,-5.4571,-5.4566,-5.4642,-5.4642,-5.4642,-5.453,-5.4525,-5.452,-5.4516,-5.4533,-5.4538,-5.4543,-5.4672,0,0,-5.4559,-5.4561,0,0,0,0,0,0,0,0,-5.4532,-5.4539,-5.4578,-5.4574,-5.4569,-5.4578,-5.4602,-5.4652,-5.4531,-5.4544,-5.4519,-5.4513,-5.4554,-5.4557,-5.4571,-5.4672,-5.4673,-5.4559,-5.4563,-5.4565,-5.4566,0,0,0,0,0,0,0,-5.4529,-5.4538,-5.4631,-5.4579,-5.4574,-5.4545,-5.4546,-5.4611,-5.4575,-5.4542,-5.4534,-5.4537,-5.455,-5.4566,-5.457,-5.4673,-5.4559,-5.4564,-5.4567,-5.4569,-5.4882,-5.4887,0,0,0,0,0,0,-5.4534,-5.4536,-5.4631,-5.4632,-5.4538,-5.4552,-5.4552,-5.458,-5.4574,-5.4569,-5.4542,-5.4532,-5.4559,-5.4564,-5.457,-5.4719,-5.4565,-5.457,-5.4573,-5.4877,-5.4883,-5.4888,0,0,0,0,0,0,-5.4531,-5.4543,-5.463,-5.4582,-5.4591,-5.4559,-5.4591,-5.4583,-5.4598,-5.4574,-5.4567,-5.4564,-5.4556,-5.4563,-5.4647,-5.4719,-5.4572,-5.4577,-5.487,-5.4878,-5.4886,-5.502,0,0,0,0,0,0,-5.4528,-5.4543,-5.4592,-5.4584,-5.4594,-5.4707,-5.4596,-5.4587,-5.4608,-5.4596,-5.4593,-5.4588,-5.4553,-5.464,-5.4653,-5.4723,-5.4581,-5.4864,-5.4874,-5.4883,-5.5009,-5.5031,-5.5051,0,0,0,0,0,-5.4524,-5.4628,-5.4595,-5.4607,-5.4654,-5.4712,-5.4717,-5.4674,-5.4614,-5.4662,-5.4647,-5.4588,-5.471,-5.465,-5.4663,-5.4736,-5.4859,-5.4871,-5.4882,-5.5,-5.5027,-5.505,0,0,0,0,0,0,-5.4644,-5.4626,-5.4589,-5.4694,-5.4705,-5.4692,-5.4752,-5.4705,-5.4733,-5.472,-5.4666,-5.4666,-5.476,-5.4756,-5.469,-5.486,-5.4774,-5.4789,-5.4858,-5.4884,-5.4905,-5.4902,-5.4585,0,0,0,0,0,-5.4684,-5.4732,-5.4714,-5.4808,-5.4816,-5.4784,-5.4807,-5.4774,-5.4783,-5.4787,-5.4777,-5.4789,-5.4829,-5.4857,-5.4893,-5.5009,-5.5006,-5.5066,-5.5086,-5.5104,-5.5116,-5.5177,-5.5203,-5.4927,-5.4927,-5.4927,0,0,-5.4764,-5.476,-5.4794,-5.4833,-5.4837,-5.4889,-5.4788,-5.4847,-5.4884,-5.4796,-5.4874,-5.4869,-5.4877,-5.4978,-5.5022,-5.4978,-5.5193,-5.5119,-5.5133,-5.5136,-5.5192,-5.5218,-5.5241,-5.4935,-5.4933,-5.4932,0,0,-5.4937,-5.494,-5.5018,-5.5026,-5.5035,-5.5013,-5.5032,-5.5027,-5.502,-5.5098,-5.5033,-5.5077,-5.5148,-5.5157,-5.5171,-5.535,-5.5297,-5.5363,-5.5471,-5.5531,-5.5553,-5.5572,-5.5635,-5.5658,-5.5377,-5.5377,-5.5377,0,-5.5035,-5.511,-5.5065,-5.5128,-5.5147,-5.507,-5.515,-5.5159,-5.518,-5.5194,-5.5145,-5.5233,-5.5234,-5.5336,-5.538,-5.5394,-5.5414,-5.5362,-5.5554,-5.5572,-5.5589,-5.5648,-5.5672,-5.5385,-5.5384,-5.5383,-5.5383,0,-5.5231,-5.5285,-5.5347,-5.537,-5.5396,-5.5467,-5.5432,-5.5464,-5.5429,-5.5412,-5.5494,-5.5492,-5.5527,-5.5549,-5.5515,-5.5646,-5.5619,-5.5563,-5.5474,-5.5624,-5.5679,-5.5701,-5.5396,-5.5393,-5.5391,-5.5389,0,0,-5.5477,-5.5475,-5.5499,-5.5508,-5.5513,-5.5554,-5.5622,-5.5656,-5.5685,-5.5702,-5.5757,-5.5821,-5.5769,-5.5785,-5.5752,-5.5805,-5.5946,-5.5742,-5.5742,-5.5779,-5.609,-5.6131,-5.6158,-5.5912,-5.5916,-5.592,-5.6089,0,-5.5645,-5.5761,-5.5723,-5.584,-5.5889,-5.5818,-5.5878,-5.5888,-5.5875,-5.5914,-5.5899,-5.5944,-5.5874,-5.5883,-5.5933,-5.5918,-5.6007,-5.5906,-5.5962,-5.5965,-5.596,-5.6186,-5.6229,-5.6388,-5.611,-5.6113,-5.6116,0,-5.5855,-5.5882,-5.6005,-5.6003,-5.6021,-5.6076,-5.6104,-5.6143,-5.6153,-5.614,-5.616,-5.6115,-5.6182,-5.6096,-5.6187,-5.6119,-5.614,-5.6137,-5.6142,-5.6144,-5.6048,-5.6192,-5.6438,-5.6462,-5.615,-5.6147,-5.6144,0,-5.6021,-5.6088,-5.6169,-5.618,-5.618,-5.622,-5.6222,-5.6227,-5.625,-5.6276,-5.629,-5.6324,-5.6341,-5.6368,-5.6334,-5.6275,-5.643,-5.6341,-5.642,-5.6421,-5.6454,-5.6452,-5.6705,-5.6471,-5.6471,-5.6471,-5.647,0,-5.6211,-5.6288,-5.6244,-5.6294,-5.6379,-5.6335,-5.6421,-5.6414,-5.6421,-5.6468,-5.641,-5.6456,-5.6409,-5.6451,-5.6426,-5.6505,-5.6514,-5.6504,-5.6496,-5.6508,-5.6509,-5.6519,-5.6507,-5.6477,-5.6476,-5.6474,-5.6473,0,-5.6409,-5.6382,-5.6467,-5.6461,-5.6461,-5.6524,-5.6519,-5.6565,-5.6549,-5.661,-5.6622,-5.6596,-5.6643,-5.6612,-5.6659,-5.6642,-5.6745,-5.6722,-5.6741,-5.6734,-5.6815,-5.6807,-5.7081,-5.7115,-5.6862,-5.6864,-5.6866,0,-5.653,-5.6588,-5.6589,-5.6617,-5.6623,-5.6669,-5.6693,-5.6653,-5.668,-5.6697,-5.6742,-5.6783,-5.6814,-5.6892,-5.6877,-5.6913,-5.6889,-5.6983,-5.6894,-5.6905,-5.6889,-5.6885,-5.689,-5.7,-5.7003,-5.7006,-5.7008,0,-5.6749,-5.6734,-5.677,-5.6804,-5.6834,-5.6858,-5.6877,-5.6903,-5.6863,-5.6897,-5.6944,-5.6968,-5.7017,-5.7058,-5.7089,-5.709,-5.7043,-5.7037,-5.7056,-5.7068,-5.7076,-5.7072,-5.6788,-5.703,-5.7028,-5.7026,-5.7025,-5.7024,-5.6911,-5.696,-5.6968,-5.7011,-5.7022,-5.7041,-5.7085,-5.7075,-5.7113,-5.7149,-5.7124,-5.718,-5.7189,-5.7225,-5.7233,-5.7276,-5.7238,-5.7267,-5.7274,-5.7281,-5.7292,-5.7072,-5.7282,-5.7281,-5.728,-5.728,-5.7279,0,-5.7125,-5.7128,-5.7168,-5.7197,-5.7232,-5.7186,-5.7205,-5.7236,-5.7286,-5.73,-5.7332,-5.7386,-5.7427,-5.7417,-5.7454,-5.749,-5.7469,-5.7501,-5.7497,-5.7498,-5.7324,-5.7303,-5.7517,-5.7517,-5.7517,-5.7517,-5.7517,-5.7517,-5.7241,-5.732,-5.7306,-5.739,-5.7392,-5.7447,-5.7461,-5.7479,-5.749,-5.7553,-5.7587,-5.7581,-5.7585,-5.7622,-5.7657,-5.7653,-5.7669,-5.7708,-5.7696,-5.7534,-5.751,-5.7488,-5.7467,-5.7712,-5.7713,-5.7865,-5.7867,-5.7868]},{"header":{"parameterUnit":"m.s-1","parameterCategory":1,"la1":30.2991,"la2":30.254,"lo1":-89.0895,"lo2":-89.0444,"dy":0.0017,"dx":0.0017,"nx":28,"ny":28,"refTime":"2025-03-28T09:00:00:Z","depth":0,"parameterNumber":3,"parameterNumberName":"V-component_of_WINDS"},"data":[0,0,0,0,0,0,0,0,0,0,0,0,0,0,0,0,0,0,0,0,0,0,0,0,0,0,0,0,0,0,0,0,0,0,0,0,0,0,0,0,0,0,0,0,0,0,0,0,0,0,0,0,0,0,0,0,0,0,2.3717,2.3717,0,2.3727,2.3727,2.3727,2.3697,2.3696,2.3695,2.3694,2.3702,2.3703,2.3704,0,0,0,0,0,0,0,0,0,0,0,0,0,2.3673,2.3674,2.3717,2.3718,2.3718,2.3727,2.3727,2.3727,2.3697,2.3696,2.3695,2.3694,2.3702,2.3703,2.3704,0,0,0,0,0,0,0,0,0,0,0,0,0,2.3688,2.3674,2.3717,2.3704,2.3702,2.3727,2.3727,2.3727,2.3697,2.3696,2.3694,2.3693,2.3701,2.3703,2.3704,2.3742,0,0,2.3709,2.371,0,0,0,0,0,0,0,0,2.3688,2.369,2.3706,2.3705,2.3703,2.3709,2.3714,2.3732,2.3697,2.3699,2.3694,2.3692,2.3705,2.3706,2.3711,2.3742,2.3743,2.3709,2.371,2.3711,2.3711,0,0,0,0,0,0,0,2.3686,2.3689,2.3721,2.3706,2.3704,2.3697,2.3698,2.3718,2.371,2.3699,2.3697,2.3698,2.3704,2.371,2.3711,2.3743,2.3709,2.3711,2.3712,2.3712,2.3808,2.3809,0,0,0,0,0,0,2.3687,2.3689,2.3721,2.3721,2.3692,2.3699,2.37,2.3709,2.3709,2.3708,2.3699,2.3697,2.3708,2.3709,2.3711,2.3757,2.3711,2.3712,2.3713,2.3806,2.3808,2.381,0,0,0,0,0,0,2.3686,2.369,2.372,2.3705,2.3708,2.3701,2.3712,2.371,2.3715,2.371,2.3708,2.3706,2.3707,2.3709,2.3735,2.3757,2.3713,2.3715,2.3804,2.3807,2.3809,2.3848,0,0,0,0,0,0,2.3685,2.369,2.3704,2.3705,2.3709,2.3744,2.3713,2.3711,2.3718,2.3715,2.3716,2.3715,2.3706,2.3733,2.3737,2.3758,2.3716,2.3802,2.3806,2.3808,2.3845,2.3851,2.3857,0,0,0,0,0,2.3684,2.3714,2.3705,2.3709,2.3726,2.3745,2.3747,2.3737,2.372,2.3734,2.3732,2.3715,2.3754,2.3736,2.374,2.3762,2.3801,2.3805,2.3808,2.3842,2.385,2.3857,0,0,0,0,0,0,2.3714,2.3713,2.3704,2.3735,2.3741,2.374,2.3757,2.3745,2.3755,2.3752,2.3738,2.3739,2.3768,2.3767,2.3747,2.38,2.3775,2.3779,2.3799,2.3807,2.3813,2.3812,2.3717,0,0,0,0,0,2.3724,2.374,2.3739,2.3767,2.377,2.3764,2.3772,2.3763,2.3768,2.377,2.3769,2.3775,2.3789,2.3798,2.381,2.3845,2.3845,2.3862,2.3869,2.3874,2.3878,2.3898,2.3906,2.3822,2.3822,2.3822,0,0,2.3745,2.3747,2.3758,2.3773,2.3776,2.3793,2.3766,2.3784,2.3797,2.3773,2.3798,2.3798,2.3803,2.3835,2.3848,2.3835,2.3902,2.3878,2.3882,2.3883,2.3903,2.3911,2.3918,2.3824,2.3824,2.3823,0,0,2.3793,2.3796,2.382,2.3825,2.3831,2.3827,2.3834,2.3836,2.3835,2.3861,2.3844,2.3859,2.3882,2.3887,2.3893,2.3947,2.3932,2.3951,2.3983,2.4003,2.401,2.4016,2.4036,2.4043,2.3955,2.3955,2.3955,0,2.3818,2.3844,2.3834,2.3855,2.3863,2.3844,2.3869,2.3874,2.3883,2.3889,2.3875,2.3906,2.3908,2.3941,2.3955,2.396,2.3967,2.395,2.401,2.4016,2.4021,2.404,2.4048,2.3958,2.3957,2.3957,2.3957,0,2.3876,2.3894,2.3913,2.3925,2.3934,2.3957,2.3951,2.3963,2.3955,2.3953,2.398,2.3982,2.3996,2.4003,2.3994,2.4036,2.4028,2.4012,2.3986,2.4032,2.4049,2.4057,2.3961,2.396,2.3959,2.3959,0,0,2.394,2.3948,2.3956,2.3962,2.3969,2.3983,2.4006,2.402,2.4031,2.4039,2.4059,2.4081,2.4067,2.4074,2.4066,2.4084,2.4128,2.4066,2.4066,2.4078,2.4176,2.4188,2.4197,2.4119,2.4121,2.4122,2.4176,0,2.3988,2.4027,2.4021,2.4059,2.4077,2.4061,2.4081,2.4088,2.4088,2.4103,2.4102,2.4118,2.4098,2.4103,2.412,2.4119,2.4148,2.4115,2.4137,2.4138,2.4137,2.4206,2.4218,2.4269,2.4183,2.4184,2.4185,0,2.4048,2.4061,2.4102,2.4109,2.4116,2.4134,2.4149,2.4163,2.4171,2.417,2.4179,2.4169,2.4193,2.4168,2.4201,2.4179,2.4188,2.4189,2.4191,2.4192,2.4164,2.4209,2.4285,2.4293,2.4195,2.4194,2.4194,0,2.4092,2.4119,2.4148,2.4154,2.4162,2.4176,2.418,2.4187,2.4198,2.421,2.4217,2.4231,2.424,2.4252,2.4246,2.4228,2.4281,2.4254,2.4281,2.4281,2.4292,2.4291,2.437,2.4297,2.4297,2.4297,2.4297,0,2.4146,2.4172,2.4168,2.4186,2.4215,2.4208,2.4237,2.4239,2.4247,2.4265,2.4252,2.4269,2.4261,2.4278,2.4274,2.4303,2.4306,2.4306,2.4305,2.4307,2.4307,2.4313,2.4309,2.4299,2.4299,2.4298,2.4298,0,2.4199,2.4198,2.4229,2.4236,2.4238,2.426,2.4266,2.4283,2.4282,2.4306,2.4311,2.431,2.433,2.4326,2.4347,2.4344,2.4381,2.4375,2.4379,2.4377,2.4404,2.4402,2.4489,2.45,2.442,2.4421,2.4422,0,2.4234,2.4254,2.4264,2.4276,2.4282,2.4301,2.4312,2.4307,2.4319,2.4332,2.4347,2.4366,2.4381,2.4414,2.4415,2.4432,2.4426,2.4456,2.4428,2.4431,2.4428,2.4427,2.4429,2.4461,2.4462,2.4462,2.4463,0,2.4296,2.4295,2.4312,2.4329,2.4343,2.4356,2.4368,2.4379,2.4374,2.4389,2.441,2.4422,2.4445,2.4464,2.4481,2.4485,2.4474,2.4472,2.4479,2.4482,2.4484,2.4484,2.4394,2.447,2.4469,2.4469,2.4468,2.4468,2.4341,2.4359,2.437,2.439,2.4399,2.4411,2.4428,2.4431,2.4449,2.4468,2.4464,2.4488,2.4498,2.4519,2.4526,2.4545,2.4534,2.4544,2.4546,2.4549,2.4553,2.4481,2.4548,2.4548,2.4547,2.4547,2.4547,0,2.4403,2.441,2.4429,2.4447,2.4463,2.4453,2.4466,2.448,2.4502,2.4513,2.4529,2.4554,2.4574,2.4578,2.4597,2.4611,2.4607,2.4616,2.4615,2.4617,2.4561,2.4553,2.462,2.462,2.462,2.462,2.462,2.462,2.4437,2.4468,2.4469,2.4505,2.4511,2.4536,2.4545,2.4556,2.4565,2.4595,2.4611,2.4614,2.4623,2.4643,2.4661,2.4662,2.4669,2.4681,2.468,2.4628,2.462,2.4613,2.4606,2.4683,2.4683,2.4735,2.4735,2.4735]}]]